Weather in Udimskiy

Russia / Arkhangel'skaya Oblast'     61°08′30″N   45°54′45″E
temp.,
°C
wind,
m/s
gust,
m/s
humid.,
%
clouds,
%
prec.,
mm/h
press.,
hPa
HPBL,
m
11 may, tue
tue1100:00+5sw227295 0.0 102929
03:00+4ssw368083 0.0 102995
06:00+7ssw3771100 0.0 1029200
09:00+12sw4750100 0.0 1029592
12:00+14sw4650100 0.0 1029685
15:00+17sw4651100 0.0 1028897
18:00+16sw266517 0.0 1028252
21:00+11sw36847 0.0 1029101
12 may, wed
wed1200:00+10sw3888100 0.0 1029137
03:00+9sw39889 0.0 1029164
06:00+12sw38765 0.0 1030216
09:00+18sw355594 0.0 1029595
12:00+21sw344341 0.0 10281059
15:00+23sw34415 0.0 10271256
18:00+21ssw24535 0.0 1027124
21:00+14ssw2268100 0.0 102714
13 may, thu
thu1300:00+13ssw226471 0.0 102718
03:00+11ssw22710 0.0 102725
06:00+15ssw24690 0.0 1027118
09:00+21s24530 0.0 1026608
12:00+23ssw454794 0.0 10251730
15:00+24ssw353899 0.0 10232467
18:00+19sw115898 0.0 102213
21:00+16s256925 0.0 102184
14 may, fri
fri1400:00+15s27795 0.3 1020121
03:00+13sse2787100 0.3 1019129
06:00+16s3107671 0.0 1018354
09:00+19ssw586398 0.0 10171141
12:00+20sw576156 0.1 10171388
15:00+21sw694732 0.1 10172088
18:00+19sw4959100 0.0 10161115
21:00+15ssw2876100 0.0 1016187
15 may, sat
sat1500:00+13sw27875 0.0 1016138
03:00+11wsw25916 0.0 101793
06:00+14sw2774100 0.0 1016222
09:00+17sw2468100 0.0 1015428
12:00+17ssw247596 0.0 1016468
15:00+22ssw2552100 0.1 10141771
18:00+21e2366100 0.1 101285
21:00+16w1191100 2.0 101037